Tracking 23114 objects as of 16-May-2021
HD Live streaming from Space Station
objects crossing your sky now

STARLINK-2480

Track STARLINK-2480 now!
10-day predictions
STARLINK-2480 is classified as:


NORAD ID: 48137
Int'l Code: 2021-027AX
Perigee: 356.6 km
Apogee: 359.5 km
Inclination: 53.0 °
Period: 91.6 minutes
Semi major axis: 6729 km
RCS: Unknown
Launch date: April 7, 2021
Source: United States (US)
Launch site: AIR FORCE EASTERN TEST RANGE (AFETR)
aabbcc
Your satellite tracking list
Your tracking list is empty




NASA's NSSDC Master Catalog

Two Line Element Set (TLE):
1 48137U 21027AX  21136.58334491  .00676615  00000-0  45245-2 0  9998
2 48137  53.0460 147.0568 0002221  30.0567 142.3511 15.72795516  1828
Source of the keplerian elements: AFSPC